Date,Installs,Update checks
2021-01-01,1,0
2021-01-02,5,0
2021-01-03,2,0
2021-01-04,0,0
2021-01-05,1,2
2021-01-06,5,0
2021-01-07,4,1
2021-01-08,6,1
2021-01-09,0,1
2021-01-10,1,2
2021-01-11,2,3
2021-01-12,1,4
2021-01-13,1,0
2021-01-14,4,1
2021-01-15,7,1
2021-01-16,3,1
2021-01-17,3,4
2021-01-18,0,3
2021-01-19,3,0
2021-01-20,1,4
2021-01-21,3,3
2021-01-22,1,4
2021-01-23,5,5
2021-01-24,3,3
2021-01-25,3,3
2021-01-26,1,7
2021-01-27,4,3
2021-01-28,4,3
2021-01-29,1,9
2021-01-30,5,6
2021-01-31,2,4
2021-02-01,4,7
2021-02-02,3,7
2021-02-03,4,7
2021-02-04,2,7
2021-02-05,1,8
2021-02-06,2,9
2021-02-07,8,6
2021-02-08,3,4
2021-02-09,4,7
2021-02-10,2,15
2021-02-11,2,10
2021-02-12,2,9
2021-02-13,1,14
2021-02-14,0,11
2021-02-15,3,21
2021-02-16,4,21
2021-02-17,1,18
2021-02-18,2,18
2021-02-19,4,19
2021-02-20,1,16
2021-02-21,4,16
2021-02-22,4,16
2021-02-23,1,22
2021-02-24,4,17
2021-02-25,3,16
2021-02-26,2,23
2021-02-27,5,17
2021-02-28,2,24
2021-03-01,1,21
2021-03-02,5,25
2021-03-03,1,27
2021-03-04,3,34
2021-03-05,2,30
2021-03-06,1,34
2021-03-07,1,32
2021-03-08,3,31
2021-03-09,3,21
2021-03-10,5,28
2021-03-11,5,25
2021-03-12,2,20
2021-03-13,5,27
2021-03-14,1,24
2021-03-15,1,22
2021-03-16,5,28
2021-03-17,1,30
2021-03-18,2,29
2021-03-19,2,30
2021-03-20,2,21
2021-03-21,3,22
2021-03-22,2,28
2021-03-23,1,22
2021-03-24,0,24
2021-03-25,3,25
2021-03-26,4,29
2021-03-27,4,27
2021-03-28,3,27
2021-03-29,2,24
2021-03-30,2,27
2021-03-31,1,25
2021-04-01,1,34
2021-04-02,2,25
2021-04-03,3,21
2021-04-04,4,33
2021-04-05,5,27
2021-04-06,6,35
2021-04-07,2,31
2021-04-08,4,38
2021-04-09,2,33
2021-04-10,3,44
2021-04-11,4,32
2021-04-12,2,32
2021-04-13,0,39
2021-04-14,0,35
2021-04-15,4,25
2021-04-16,4,44
2021-04-17,3,49
2021-04-18,6,55
2021-04-19,2,49
2021-04-20,3,51
2021-04-21,4,50
2021-04-22,2,53
2021-04-23,2,55
2021-04-24,1,45
2021-04-25,1,47
2021-04-26,4,50
2021-04-27,5,49
2021-04-28,2,52
2021-04-29,3,54
2021-04-30,0,51
2021-05-01,0,48
2021-05-02,0,47
2021-05-03,0,49
2021-05-04,0,55
2021-05-05,0,52
2021-05-06,3,39
2021-05-07,0,51
2021-05-08,0,52
2021-05-09,3,43
2021-05-10,2,45
2021-05-11,2,52
2021-05-12,2,53
2021-05-13,3,54
2021-05-14,2,60
2021-05-15,1,54
2021-05-16,1,56
2021-05-17,1,56
2021-05-18,0,49
2021-05-19,0,57
2021-05-20,0,51
2021-05-21,0,57
2021-05-22,1,48
2021-05-23,2,53
2021-05-24,1,50
2021-05-25,2,55
2021-05-26,0,56
2021-05-27,2,55
2021-05-28,0,50
2021-05-29,0,49
2021-05-30,0,41
2021-05-31,0,54
2021-06-01,1,58
2021-06-02,1,52
2021-06-03,1,45
2021-06-04,3,54
2021-06-05,1,38
2021-06-06,4,55
2021-06-07,1,50
2021-06-08,0,54
2021-06-09,3,54
2021-06-10,3,59
2021-06-11,1,53
2021-06-12,2,55
2021-06-13,3,62
2021-06-14,3,53
2021-06-15,1,59
2021-06-16,0,65
2021-06-17,0,58
2021-06-18,3,52
2021-06-19,3,57
2021-06-20,3,51
2021-06-21,1,57
2021-06-22,0,56
2021-06-23,6,56
2021-06-24,2,61
2021-06-25,1,51
2021-06-26,1,49
2021-06-27,0,57
2021-06-28,2,57
2021-06-29,0,52
2021-06-30,3,59
2021-07-01,0,63
2021-07-02,0,55
2021-07-03,0,50
2021-07-04,0,46
2021-07-05,1,64
2021-07-06,1,49
2021-07-07,2,51
2021-07-08,0,53
2021-07-09,1,54
2021-07-10,0,48
2021-07-11,1,43
2021-07-12,3,54
2021-07-13,2,43
2021-07-14,2,51
2021-07-15,0,60
2021-07-16,1,53
2021-07-17,1,48
2021-07-18,0,0
2021-07-19,0,21
2021-07-20,0,55
2021-07-21,2,55
2021-07-22,0,57
2021-07-23,0,51
2021-07-24,1,48
2021-07-25,2,49
2021-07-26,3,63
2021-07-27,1,58
2021-07-28,0,50
2021-07-29,2,57
2021-07-30,3,56
2021-07-31,0,58
2021-08-01,3,64
2021-08-02,3,54
2021-08-03,0,48
2021-08-04,1,60
2021-08-05,2,53
2021-08-06,4,56
2021-08-07,1,55
2021-08-08,3,55
2021-08-09,1,59
2021-08-10,0,53
2021-08-11,1,60
2021-08-12,2,54
2021-08-13,4,60
2021-08-14,1,59
2021-08-15,0,52
2021-08-16,7,62
2021-08-17,9,56
2021-08-18,1,67
2021-08-19,2,71
2021-08-20,2,73
2021-08-21,7,66
2021-08-22,7,66
2021-08-23,4,66
2021-08-24,2,69
2021-08-25,1,78
2021-08-26,1,71
2021-08-27,1,72
2021-08-28,3,67
2021-08-29,1,63
2021-08-30,0,69
2021-08-31,1,72
2021-09-01,0,67
2021-09-02,2,62
2021-09-03,0,63
2021-09-04,4,63
2021-09-05,3,67
2021-09-06,1,58
2021-09-07,1,72
2021-09-08,1,62
2021-09-09,5,70
2021-09-10,4,75
2021-09-11,2,68
2021-09-12,1,74
2021-09-13,2,64
2021-09-14,0,67
2021-09-15,2,71
2021-09-16,1,63
2021-09-17,3,63
2021-09-18,2,73
2021-09-19,5,71
2021-09-20,7,73
2021-09-21,5,76
2021-09-22,4,68
2021-09-23,1,68
2021-09-24,0,69
2021-09-25,4,67
2021-09-26,6,68
2021-09-27,0,67
2021-09-28,0,62
2021-09-29,0,73
2021-09-30,0,62
2021-10-01,6,62
2021-10-02,3,62
2021-10-03,3,67
2021-10-04,3,69
2021-10-05,0,75
2021-10-06,2,62
2021-10-07,4,71
2021-10-08,6,70
2021-10-09,8,78
2021-10-10,9,68
2021-10-11,6,80
2021-10-12,2,83
2021-10-13,1,70
2021-10-14,3,85
2021-10-15,2,72
2021-10-16,1,78
2021-10-17,4,76
2021-10-18,1,71
2021-10-19,1,85
2021-10-20,2,73
2021-10-21,0,79
2021-10-22,3,76
2021-10-23,0,79
2021-10-24,1,81
2021-10-25,2,79
2021-10-26,0,93
2021-10-27,2,76
2021-10-28,1,69
2021-10-29,0,87
2021-10-30,2,71
2021-10-31,4,76
2021-11-01,1,86
2021-11-02,5,69
2021-11-03,1,81
2021-11-04,0,74
2021-11-05,1,79
2021-11-06,2,69
2021-11-07,0,69
2021-11-08,1,79
2021-11-09,1,77
2021-11-10,1,83
2021-11-11,1,69
2021-11-12,3,79
2021-11-13,3,72
2021-11-14,2,73
2021-11-15,2,86
2021-11-16,2,79
2021-11-17,0,82
2021-11-18,2,89
2021-11-19,3,78
2021-11-20,4,75
2021-11-21,3,68
2021-11-22,1,74
2021-11-23,4,69
2021-11-24,0,78
2021-11-25,1,81
2021-11-26,1,84
2021-11-27,0,64
2021-11-28,0,68
2021-11-29,2,84
2021-11-30,0,79
2021-12-01,2,75
2021-12-02,4,75
2021-12-03,0,81
2021-12-04,0,70
2021-12-05,2,67
2021-12-06,3,83
2021-12-07,1,65
2021-12-08,3,70
2021-12-09,0,86
2021-12-10,3,71
2021-12-11,2,83
2021-12-12,0,77
2021-12-13,0,62
2021-12-14,2,83
2021-12-15,0,67
2021-12-16,2,72
2021-12-17,1,82
2021-12-18,1,71
2021-12-19,1,72
2021-12-20,0,75
2021-12-21,2,68
2021-12-22,0,66
2021-12-23,1,75
2021-12-24,0,73
2021-12-25,1,62
2021-12-26,2,64
2021-12-27,0,72
2021-12-28,3,66
2021-12-29,3,78
2021-12-30,1,84
2021-12-31,1,69
2022-01-01,0,71
2022-01-02,1,75
2022-01-03,2,77
2022-01-04,1,75
2022-01-05,2,83
2022-01-06,0,77
2022-01-07,0,88
2022-01-08,0,76
2022-01-09,1,2
2022-01-10,0,0
2022-01-11,0,75
2022-01-12,1,68
2022-01-13,2,76
2022-01-14,4,82
2022-01-15,3,66
2022-01-16,0,73
2022-01-17,0,71
2022-01-18,0,86
2022-01-19,0,78
2022-01-20,2,74
2022-01-21,3,79
2022-01-22,1,60
2022-01-23,1,67
2022-01-24,3,79
2022-01-25,2,84
2022-01-26,1,75
2022-01-27,1,73
2022-01-28,1,78
2022-01-29,2,70
2022-01-30,2,73
2022-01-31,4,77
2022-02-01,4,77
2022-02-02,1,83
2022-02-03,4,62
2022-02-04,1,78
2022-02-05,0,73
2022-02-06,1,81
2022-02-07,1,89
2022-02-08,1,78
2022-02-09,0,77
2022-02-10,2,73
2022-02-11,2,71
2022-02-12,2,90
2022-02-13,0,76
2022-02-14,2,85
2022-02-15,1,81
2022-02-16,3,65
2022-02-17,3,79
2022-02-18,1,78
2022-02-19,4,87
2022-02-20,2,75
2022-02-21,4,83
2022-02-22,4,74
2022-02-23,2,86
2022-02-24,0,80
2022-02-25,2,78
2022-02-26,1,79
2022-02-27,1,70
2022-02-28,3,82
2022-03-01,2,83
2022-03-02,1,78
2022-03-03,2,72
2022-03-04,2,80
2022-03-05,4,75
2022-03-06,1,74
2022-03-07,3,81
2022-03-08,3,83
2022-03-09,0,88
2022-03-10,1,76
2022-03-11,5,86
2022-03-12,2,74
2022-03-13,1,87
2022-03-14,1,89
2022-03-15,3,88
2022-03-16,5,85
2022-03-17,0,84
2022-03-18,2,88
2022-03-19,3,91
2022-03-20,6,88
2022-03-21,2,86
2022-03-22,2,85
2022-03-23,1,94
2022-03-24,3,88
2022-03-25,0,99
2022-03-26,5,85
2022-03-27,6,86
2022-03-28,2,93
2022-03-29,0,89
2022-03-30,3,96
2022-03-31,4,96
2022-04-01,3,88
2022-04-02,1,94
2022-04-03,3,80
2022-04-04,3,100
2022-04-05,1,82
2022-04-06,1,99
2022-04-07,0,94
2022-04-08,0,95
2022-04-09,5,92
2022-04-10,1,91
2022-04-11,1,91
2022-04-12,0,89
2022-04-13,1,108
2022-04-14,2,88
2022-04-15,3,93
2022-04-16,3,99
2022-04-17,1,87
2022-04-18,1,89
2022-04-19,0,96
2022-04-20,0,99
2022-04-21,0,106
2022-04-22,1,94
2022-04-23,0,88
2022-04-24,4,92
2022-04-25,3,94
2022-04-26,1,103
2022-04-27,1,101
2022-04-28,1,90
2022-04-29,2,103
2022-04-30,0,81
2022-05-01,0,97
2022-05-02,1,92
2022-05-03,1,92
2022-05-04,1,87
2022-05-05,0,83
2022-05-06,1,94
2022-05-07,0,83
2022-05-08,0,96
2022-05-09,2,98
2022-05-10,2,97
2022-05-11,0,97
2022-05-12,3,89
2022-05-13,1,100
2022-05-14,1,79
2022-05-15,1,84
2022-05-16,0,86
2022-05-17,0,85
2022-05-18,1,86
2022-05-19,1,83
2022-05-20,1,83
2022-05-21,0,71
2022-05-22,3,74
2022-05-23,2,89
2022-05-24,2,86
2022-05-25,3,86
2022-05-26,1,85
2022-05-27,0,80
2022-05-28,1,93
2022-05-29,0,90
2022-05-30,2,82
2022-05-31,1,99
2022-06-01,3,92
2022-06-02,2,89
2022-06-03,1,86
2022-06-04,4,81
2022-06-05,3,87
2022-06-06,3,90
2022-06-07,4,90
2022-06-08,2,80
2022-06-09,4,86
2022-06-10,3,92
2022-06-11,2,80
2022-06-12,4,93
2022-06-13,6,87
2022-06-14,1,88
2022-06-15,0,82
2022-06-16,0,86
2022-06-17,2,93
2022-06-18,1,84
2022-06-19,2,81
2022-06-20,1,92
2022-06-21,1,83
2022-06-22,1,77
2022-06-23,1,87
2022-06-24,2,85
2022-06-25,2,89
2022-06-26,2,90
2022-06-27,0,88
2022-06-28,0,82
2022-06-29,2,83
2022-06-30,1,92
2022-07-01,0,84
2022-07-02,0,84
2022-07-03,1,91
2022-07-04,0,78
2022-07-05,1,91
2022-07-06,0,90
2022-07-07,0,89
2022-07-08,3,82
2022-07-09,3,86
2022-07-10,1,76
2022-07-11,4,81
2022-07-12,4,87
2022-07-13,4,86
2022-07-14,2,93
2022-07-15,3,80
2022-07-16,4,78
2022-07-17,2,77
2022-07-18,0,96
2022-07-19,4,83
2022-07-20,2,84
2022-07-21,1,90
2022-07-22,2,82
2022-07-23,2,76
2022-07-24,0,65
2022-07-25,3,85
2022-07-26,1,101
2022-07-27,1,91
2022-07-28,0,89
2022-07-29,0,83
2022-07-30,1,74
2022-07-31,2,79
2022-08-01,0,91
2022-08-02,0,85
2022-08-03,1,81
2022-08-04,1,97
2022-08-05,2,86
2022-08-06,0,73
2022-08-07,0,81
2022-08-08,0,92
2022-08-09,1,89
2022-08-10,0,79
2022-08-11,0,87
2022-08-12,2,82
2022-08-13,2,85
2022-08-14,0,75
2022-08-15,3,86
2022-08-16,0,85
2022-08-17,0,75
2022-08-18,2,76
2022-08-19,1,85
2022-08-20,4,74
2022-08-21,4,78
2022-08-22,1,78
2022-08-23,1,74
2022-08-24,1,74
2022-08-25,1,88
2022-08-26,1,84
2022-08-27,1,78
2022-08-28,5,79
2022-08-29,4,90
2022-08-30,0,81
2022-08-31,4,80
2022-09-01,4,82
2022-09-02,3,97
2022-09-03,2,84
2022-09-04,3,89
2022-09-05,4,96
2022-09-06,0,77
2022-09-07,1,84
2022-09-08,3,84
2022-09-09,0,93
2022-09-10,2,77
2022-09-11,2,88
2022-09-12,0,96
2022-09-13,2,90
2022-09-14,0,89
2022-09-15,1,90
2022-09-16,1,87
2022-09-17,2,90
2022-09-18,0,82
2022-09-19,4,83
2022-09-20,1,99
2022-09-21,3,84
2022-09-22,0,88
2022-09-23,2,90
2022-09-24,0,81
2022-09-25,1,78
2022-09-26,1,78
2022-09-27,0,84
2022-09-28,1,90
2022-09-29,1,91
2022-09-30,2,87
2022-10-01,2,76
2022-10-02,3,64
2022-10-03,2,83
2022-10-04,0,87
2022-10-05,2,89
2022-10-06,1,90
2022-10-07,1,93
2022-10-08,1,79
2022-10-09,2,84
2022-10-10,2,83
2022-10-11,0,81
2022-10-12,1,79
2022-10-13,0,85
2022-10-14,2,81
2022-10-15,2,78
2022-10-16,2,73
2022-10-17,1,87
2022-10-18,0,85
2022-10-19,1,86
2022-10-20,1,86
2022-10-21,2,92
2022-10-22,0,67
2022-10-23,2,78
2022-10-24,1,86
2022-10-25,3,77
2022-10-26,1,77
2022-10-27,1,80
2022-10-28,2,78
2022-10-29,7,77
2022-10-30,2,80
2022-10-31,5,87
2022-11-01,3,80
2022-11-02,0,83
2022-11-03,2,79
2022-11-04,1,90
2022-11-05,1,70
2022-11-06,4,76
2022-11-07,2,84
2022-11-08,1,85
2022-11-09,2,85
2022-11-10,0,84
2022-11-11,2,90
2022-11-12,2,80
2022-11-13,0,80
2022-11-14,1,85
2022-11-15,1,83
2022-11-16,3,90
2022-11-17,2,84
2022-11-18,1,83
2022-11-19,0,66
2022-11-20,1,75
2022-11-21,2,74
2022-11-22,0,85
2022-11-23,0,78
2022-11-24,0,83
2022-11-25,1,84
2022-11-26,1,70
2022-11-27,1,73
2022-11-28,0,83
2022-11-29,0,72
2022-11-30,3,77
2022-12-01,3,85
2022-12-02,3,69
2022-12-03,1,72
2022-12-04,0,74
2022-12-05,3,80
2022-12-06,2,73
2022-12-07,1,72
2022-12-08,3,69
2022-12-09,0,75
2022-12-10,0,59
2022-12-11,4,71
2022-12-12,1,65
2022-12-13,0,70
2022-12-14,2,56
2022-12-15,3,73
2022-12-16,4,62
2022-12-17,4,63
2022-12-18,0,68
2022-12-19,0,65
2022-12-20,1,74
2022-12-21,1,60
2022-12-22,1,80
2022-12-23,0,74
2022-12-24,1,55
2022-12-25,6,67
2022-12-26,1,54
2022-12-27,1,69
2022-12-28,0,72
2022-12-29,2,59
2022-12-30,3,68
2022-12-31,1,65
2023-01-01,1,67
2023-01-02,2,87
2023-01-03,1,89
2023-01-04,2,79
2023-01-05,2,82
2023-01-06,1,73
2023-01-07,3,77
2023-01-08,2,81
2023-01-09,1,92
2023-01-10,0,97
2023-01-11,0,89
2023-01-12,1,85
2023-01-13,3,84
2023-01-14,3,91
2023-01-15,0,78
2023-01-16,1,92
2023-01-17,1,97
2023-01-18,0,88
2023-01-19,0,87
2023-01-20,2,97
2023-01-21,2,95
2023-01-22,0,90
2023-01-23,1,94
2023-01-24,1,93
2023-01-25,1,82
2023-01-26,2,97
2023-01-27,0,94
2023-01-28,1,88
2023-01-29,1,89
2023-01-30,1,92
2023-01-31,1,91
2023-02-01,1,92
2023-02-02,6,97
2023-02-03,1,89
2023-02-04,3,86
2023-02-05,2,82
2023-02-06,0,94
2023-02-07,0,94
2023-02-08,3,97
2023-02-09,1,94
2023-02-10,2,100
2023-02-11,4,85
2023-02-12,2,105
2023-02-13,3,96
2023-02-14,1,95
2023-02-15,1,93
2023-02-16,4,102
2023-02-17,3,88
2023-02-18,3,81
2023-02-19,0,86
2023-02-20,0,90
2023-02-21,1,72
2023-02-22,0,82
2023-02-23,0,86
2023-02-24,0,88
2023-02-25,0,87
2023-02-26,0,77
2023-02-27,0,107
2023-02-28,1,85
2023-03-01,2,95
2023-03-02,1,87
2023-03-03,4,85
2023-03-04,0,89
2023-03-05,1,75
2023-03-06,2,98
2023-03-07,1,95
2023-03-08,3,92
2023-03-09,2,99
2023-03-10,4,87
2023-03-11,2,91
2023-03-12,4,74
2023-03-13,0,98
2023-03-14,5,102
2023-03-15,0,90
2023-03-16,2,108
2023-03-17,1,101
2023-03-18,1,78
2023-03-19,1,89
2023-03-20,4,96
2023-03-21,2,91
2023-03-22,2,82
2023-03-23,4,104
2023-03-24,1,96
2023-03-25,1,95
2023-03-26,2,90
2023-03-27,3,102
2023-03-28,4,94
2023-03-29,3,105
2023-03-30,2,94
2023-03-31,0,85
2023-04-01,1,92
2023-04-02,1,88
2023-04-03,0,101
2023-04-04,0,104
2023-04-05,1,91
2023-04-06,2,90
2023-04-07,0,91
2023-04-08,5,84
2023-04-09,4,89
2023-04-10,2,106
2023-04-11,2,111
2023-04-12,3,106
2023-04-13,1,102
2023-04-14,1,111
2023-04-15,1,94
2023-04-16,1,98
2023-04-17,2,98
2023-04-18,2,94
2023-04-19,0,96
2023-04-20,2,94
2023-04-21,0,86
2023-04-22,1,92
2023-04-23,2,89
2023-04-24,0,91
2023-04-25,2,79
2023-04-26,1,97
2023-04-27,0,99
2023-04-28,2,96
2023-04-29,0,98
2023-04-30,1,87
2023-05-01,5,104
2023-05-02,3,98
2023-05-03,1,95
2023-05-04,0,92
2023-05-05,2,93
2023-05-06,0,82
2023-05-07,3,105
2023-05-08,1,92
2023-05-09,1,99
2023-05-10,1,98
2023-05-11,2,97
2023-05-12,1,102
2023-05-13,0,95
2023-05-14,0,106
2023-05-15,1,107
2023-05-16,2,104
2023-05-17,0,94
2023-05-18,1,103
2023-05-19,1,97
2023-05-20,1,84
2023-05-21,0,87
2023-05-22,2,102
2023-05-23,0,99
2023-05-24,0,94
2023-05-25,2,112
2023-05-26,0,100
2023-05-27,0,99
2023-05-28,1,85
2023-05-29,0,90
2023-05-30,0,101
2023-05-31,0,87
2023-06-01,4,86
2023-06-02,1,99
2023-06-03,2,92
2023-06-04,3,89
2023-06-05,2,104
2023-06-06,1,88
2023-06-07,0,101
2023-06-08,2,98
2023-06-09,2,93
2023-06-10,0,92
2023-06-11,0,74
2023-06-12,0,105
2023-06-13,2,90
2023-06-14,1,88
2023-06-15,2,85
2023-06-16,2,96
2023-06-17,0,99
2023-06-18,1,87
2023-06-19,6,93
2023-06-20,0,87
2023-06-21,4,95
2023-06-22,1,103
2023-06-23,3,89
2023-06-24,1,81
2023-06-25,1,87
2023-06-26,0,92
2023-06-27,0,88
2023-06-28,2,97
2023-06-29,2,82
2023-06-30,1,103
2023-07-01,1,86
2023-07-02,2,100
2023-07-03,2,96
2023-07-04,0,101
2023-07-05,1,102
2023-07-06,0,92
2023-07-07,8,87
2023-07-08,2,91
2023-07-09,2,92
2023-07-10,1,97
2023-07-11,2,82
2023-07-12,2,92
2023-07-13,2,105
2023-07-14,0,96
2023-07-15,2,84
2023-07-16,1,86
2023-07-17,0,98
2023-07-18,0,94
2023-07-19,1,101
2023-07-20,2,88
2023-07-21,1,90
2023-07-22,2,83
2023-07-23,3,88
2023-07-24,5,97
2023-07-25,2,98
2023-07-26,2,94
2023-07-27,1,86
2023-07-28,2,85
2023-07-29,2,80
2023-07-30,4,77
2023-07-31,1,87
2023-08-01,0,90
2023-08-02,0,84
2023-08-03,2,87
2023-08-04,0,87
2023-08-05,0,88
2023-08-06,1,71
2023-08-07,0,89
2023-08-08,2,95
2023-08-09,2,87
2023-08-10,1,81
2023-08-11,2,88
2023-08-12,1,83
2023-08-13,1,83
2023-08-14,0,81
2023-08-15,3,96
2023-08-16,1,90
2023-08-17,0,85
2023-08-18,1,86
2023-08-19,3,87
2023-08-20,2,85
2023-08-21,1,90
2023-08-22,1,83
2023-08-23,2,89
2023-08-24,2,88
2023-08-25,2,98
2023-08-26,2,80
2023-08-27,1,85
2023-08-28,3,98
2023-08-29,2,92
2023-08-30,1,95
2023-08-31,3,87
2023-09-01,1,97
2023-09-02,0,95
2023-09-03,1,83
2023-09-04,2,97
2023-09-05,2,90
2023-09-06,1,99
2023-09-07,0,91
2023-09-08,1,86
2023-09-09,0,86
2023-09-10,3,93
2023-09-11,0,103
2023-09-12,0,93
2023-09-13,0,97
2023-09-14,2,87
2023-09-15,1,81
2023-09-16,3,88
2023-09-17,6,86
2023-09-18,0,99
2023-09-19,1,88
2023-09-20,0,91
2023-09-21,0,92
2023-09-22,0,81
2023-09-23,0,97
2023-09-24,3,94
2023-09-25,1,91
2023-09-26,0,105
2023-09-27,0,98
2023-09-28,0,86
2023-09-29,0,97
2023-09-30,0,91
2023-10-01,0,86
2023-10-02,0,97
2023-10-03,0,95
2023-10-04,0,91
2023-10-05,0,93
2023-10-06,0,95
2023-10-07,0,93
2023-10-08,0,85
2023-10-09,0,92
2023-10-10,1,97
2023-10-11,0,103
2023-10-12,0,93
2023-10-13,1,95
2023-10-14,1,86
2023-10-15,0,78
2023-10-16,0,96
2023-10-17,0,96
2023-10-18,0,96
2023-10-19,0,83
2023-10-20,3,91
2023-10-21,1,76
2023-10-22,1,83
2023-10-23,2,91
2023-10-24,1,85
2023-10-25,2,96
2023-10-26,3,93
2023-10-27,0,82
2023-10-28,0,88
2023-10-29,0,75
2023-10-30,1,85
2023-10-31,0,92
2023-11-01,0,95
2023-11-02,1,109
2023-11-03,1,83
2023-11-04,0,87
2023-11-05,1,84
2023-11-06,0,104
2023-11-07,0,96
2023-11-08,1,99
2023-11-09,0,83
2023-11-10,2,84
2023-11-11,3,77
2023-11-12,0,81
2023-11-13,0,85
2023-11-14,0,93
2023-11-15,2,88
2023-11-16,1,81
2023-11-17,0,79
2023-11-18,0,79
2023-11-19,0,78
2023-11-20,0,100
2023-11-21,2,98
2023-11-22,0,91
2023-11-23,1,87
2023-11-24,1,87
2023-11-25,1,80
2023-11-26,0,84
2023-11-27,2,85
2023-11-28,1,76
2023-11-29,0,79
2023-11-30,1,77
2023-12-01,0,77
2023-12-02,1,81
2023-12-03,0,81
2023-12-04,0,84
2023-12-05,0,33
2023-12-06,0,34
2023-12-07,1,46
2023-12-08,1,44
2023-12-09,0,35
2023-12-10,0,30
2023-12-11,0,44
2023-12-12,0,42
2023-12-13,0,35
2023-12-14,0,27
2023-12-15,0,23
2023-12-16,0,36
2023-12-17,2,22
2023-12-18,2,31
2023-12-19,0,29
2023-12-20,0,30
2023-12-21,0,38
2023-12-22,1,28
2023-12-23,1,35
2023-12-24,0,34
2023-12-25,0,28
2023-12-26,0,33
2023-12-27,0,33
2023-12-28,0,29
2023-12-29,3,26
2023-12-30,0,24
2023-12-31,1,28
2024-01-01,1,25
2024-01-02,0,31
2024-01-03,0,26
2024-01-04,0,42
2024-01-05,0,28
2024-01-06,0,25
2024-01-07,0,30
2024-01-08,1,33
2024-01-09,0,38
2024-01-10,0,30
2024-01-11,0,33
2024-01-12,0,33
2024-01-13,0,27
2024-01-14,0,27
2024-01-15,0,34
2024-01-16,1,34
2024-01-17,1,35
2024-01-18,2,29
2024-01-19,2,32
2024-01-20,1,31
2024-01-21,0,33
2024-01-22,1,37
2024-01-23,0,56
2024-01-24,0,50
2024-01-25,0,56
2024-01-26,0,49
2024-01-27,0,56
2024-01-28,0,54
2024-01-29,1,63
2024-01-30,0,57
2024-01-31,0,65
2024-02-01,0,47
2024-02-02,0,52
2024-02-03,0,57
2024-02-04,0,49
2024-02-05,1,53
2024-02-06,1,58
2024-02-07,0,60
2024-02-08,0,54
2024-02-09,0,45
2024-02-10,0,53
2024-02-11,0,57
2024-02-12,0,52
2024-02-13,0,48
2024-02-14,0,50
2024-02-15,0,47
2024-02-16,0,51
2024-02-17,0,44
2024-02-18,0,48
2024-02-19,0,53
2024-02-20,0,48
2024-02-21,0,51
2024-02-22,1,45
2024-02-23,0,54
2024-02-24,0,45
2024-02-25,1,52
2024-02-26,0,45
2024-02-27,1,52
2024-02-28,0,46
2024-02-29,0,44
2024-03-01,3,46
2024-03-02,0,53
2024-03-03,0,37
2024-03-04,0,50
2024-03-05,0,32
2024-03-06,0,57
2024-03-07,1,47
2024-03-08,0,55
2024-03-09,0,45
2024-03-10,0,46
2024-03-11,0,55
2024-03-12,0,45
2024-03-13,0,50
2024-03-14,1,45
2024-03-15,0,43
2024-03-16,0,47
2024-03-17,0,44
2024-03-18,0,53
2024-03-19,0,44
2024-03-20,0,45
2024-03-21,0,55
2024-03-22,0,46
2024-03-23,0,37
2024-03-24,0,39
2024-03-25,0,46
2024-03-26,0,53
2024-03-27,0,41
2024-03-28,0,42
2024-03-29,0,28
2024-03-30,0,36
2024-03-31,0,44
2024-04-01,0,33
2024-04-02,0,51
2024-04-03,0,37
2024-04-04,0,46
2024-04-05,0,41
2024-04-06,0,34
2024-04-07,0,37
2024-04-08,0,39
2024-04-09,0,41
2024-04-10,0,39
2024-04-11,0,34
2024-04-12,0,42
2024-04-13,0,38
2024-04-14,0,30
2024-04-15,0,38
2024-04-16,0,47
2024-04-17,0,38
2024-04-18,0,46
2024-04-19,0,47
2024-04-20,0,43
2024-04-21,0,46
2024-04-22,0,48
2024-04-23,0,42
2024-04-24,0,43
2024-04-25,0,37
2024-04-26,0,48
2024-04-27,0,35
2024-04-28,0,36
2024-04-29,0,40
2024-04-30,0,46
2024-05-01,0,34
2024-05-02,0,42
2024-05-03,0,41
2024-05-04,0,38
2024-05-05,0,41
2024-05-06,0,39
2024-05-07,1,39
2024-05-08,0,41
2024-05-09,0,33
2024-05-10,1,46
2024-05-11,0,40
2024-05-12,0,28
2024-05-13,0,38
2024-05-14,0,50
2024-05-15,0,39
2024-05-16,0,27
2024-05-17,0,37
